QPF
0.02 0.03 0.02 0.02 0.01 0.02 0.02 0.01 0.01 0.00 0.00 0.01 0.00 0.01 0.02 0.02 0.02 0.01 0.01 0.01 0.01 0.01 0.02 0.01 0.01 0.02 0.02 0.03 0.02 0.01 0.01 0.01 0.02 0.02 0.02 0.01 0.01 0.01 0.02 0.02 0.03 0.03 0.03 0.03
0.03 0.03 0.01 0.01 0.01 0.02 0.02 0.03 0.02 0.01 0.01 0.01 0.01 0.01 0.02 0.02 0.02 0.01 0.02 0.02 0.02 0.02 0.02 0.02 0.01 0.01 0.01 0.02 0.02 0.01 0.01 0.01 0.01 0.01 0.02 0.01 0.01 0.01 0.03 0.04 0.04 0.04 0.05 0.04
0.01 0.01 0.01 0.02 0.02 0.03 0.03 0.03 0.02 0.02 0.01 0.02 0.02 0.02 0.02 0.02 0.02 0.02 0.02 0.02 0.02 0.02 0.01 0.01 0.02 0.01 0.01 0.01 0.02 0.02 0.01 0.01 0.01 0.01 0.01 0.02 0.03 0.03 0.04 0.04 0.05 0.05 0.06 0.06
0.01 0.01 0.01 0.02 0.02 0.02 0.02 0.02 0.02 0.02 0.03 0.04 0.03 0.03 0.02 0.02 0.02 0.02 0.02 0.01 0.01 0.02 0.02 0.01 0.01 0.01 0.01 0.01 0.01 0.01 0.01 0.01 0.01 0.02 0.01 0.01 0.01 0.01 0.01 0.02 0.03 0.04 0.06 0.07
0.01 0.01 0.01 0.02 0.01 0.02 0.02 0.01 0.03 0.03 0.04 0.04 0.04 0.05 0.03 0.02 0.02 0.02 0.02 0.02 0.01 0.01 0.01 0.01 0.01 0.01 0.01 0.01 0.00 0.01 0.01 0.01 0.01 0.01 0.02 0.01 0.01 0.01 0.01 0.01 0.02 0.03 0.03 0.05
0.01 0.01 0.02 0.02 0.01 0.02 0.03 0.03 0.03 0.05 0.07 0.07 0.03 0.04 0.04 0.02 0.02 0.01 0.01 0.02 0.01 0.00 0.00 0.00 0.00 0.00 0.01 0.01 0.01 0.01 0.01 0.02 0.02 0.02 0.01 0.01 0.01 0.01 0.01 0.01 0.01 0.01 0.02 0.02
0.01 0.01 0.01 0.02 0.02 0.02 0.05 0.08 0.10 0.10 0.11 0.06 0.02 0.03 0.04 0.03 0.01 0.01 0.01 0.01 0.01 0.00 0.00 0.00 0.00 0.00 0.00 0.00 0.01 0.01 0.01 0.02 0.02 0.02 0.02 0.02 0.02 0.02 0.01 0.01 0.00 0.00 0.01 0.01
0.01 0.01 0.01 0.02 0.03 0.04 0.05 0.08 0.08 0.06 0.05 0.03 0.02 0.03 0.03 0.02 0.01 0.01 0.01 0.01 0.01 0.01 0.01 0.01 0.00 0.00 0.00 0.00 0.00 0.00 0.01 0.01 0.02 0.02 0.02 0.02 0.03 0.03 0.02 0.02 0.02 0.01 0.01 0.01
0.02 0.01 0.01 0.01 0.02 0.03 0.05 0.06 0.06 0.05 0.04 0.03 0.03 0.03 0.02 0.01 0.01 0.01 0.01 0.01 0.01 0.01 0.01 0.01 0.01 0.01 0.01 0.00 0.00 0.00 0.00 0.00 0.01 0.01 0.01 0.02 0.02 0.02 0.02 0.03 0.03 0.03 0.02 0.02
0.03 0.02 0.01 0.01 0.01 0.02 0.04 0.05 0.06 0.08 0.07 0.05 0.04 0.03 0.03 0.02 0.02 0.01 0.01 0.02 0.02 0.02 0.01 0.01 0.01 0.01 0.01 0.00 0.00 0.00 0.00 0.00 0.00 0.00 0.01 0.01 0.01 0.01 0.02 0.03 0.03 0.03 0.03 0.03
0.02 0.02 0.02 0.02 0.03 0.03 0.03 0.05 0.07 0.08 0.07 0.06 0.04 0.05 0.04 0.03 0.03 0.02 0.02 0.02 0.02 0.02 0.02 0.02 0.02 0.01 0.01 0.01 0.01 0.01 0.00 0.00 0.00 0.00 0.00 0.01 0.01 0.01 0.01 0.01 0.03 0.03 0.03 0.02
0.01 0.02 0.01 0.02 0.02 0.01 0.03 0.04 0.06 0.09 0.08 0.05 0.03 0.04 0.05 0.04 0.03 0.03 0.03 0.03 0.03 0.03 0.03 0.03 0.02 0.02 0.01 0.01 0.01 0.01 0.01 0.01 0.01 0.01 0.00 0.00 0.00 0.00 0.01 0.01 0.02 0.03 0.03 0.02
0.04 0.03 0.02 0.02 0.02 0.02 0.02 0.03 0.04 0.06 0.06 0.05 0.03 0.04 0.04 0.03 0.03 0.03 0.03 0.03 0.03 0.03 0.04 0.04 0.03 0.02 0.02 0.01 0.01 0.01 0.01 0.01 0.01 0.01 0.01 0.00 0.00 0.00 0.00 0.01 0.02 0.01 0.01 0.01
0.03 0.03 0.02 0.03 0.03 0.03 0.03 0.02 0.03 0.04 0.06 0.05 0.03 0.04 0.04 0.03 0.03 0.03 0.03 0.03 0.02 0.03 0.03 0.03 0.03 0.03 0.02 0.02 0.01 0.01 0.01 0.01 0.01 0.01 0.01 0.01 0.00 0.00 0.00 0.01 0.02 0.02 0.01 0.01
0.01 0.02 0.01 0.02 0.01 0.01 0.02 0.02 0.03 0.03 0.04 0.05 0.04 0.04 0.05 0.04 0.04 0.03 0.03 0.02 0.02 0.02 0.02 0.02 0.03 0.03 0.03 0.02 0.01 0.01 0.01 0.01 0.01 0.01 0.01 0.01 0.00 0.00 0.00 0.00 0.01 0.02 0.02 0.01
0.01 0.02 0.02 0.01 0.01 0.01 0.01 0.02 0.02 0.03 0.04 0.05 0.04 0.05 0.05 0.05 0.04 0.04 0.04 0.03 0.03 0.02 0.02 0.02 0.02 0.02 0.03 0.03 0.02 0.01 0.01 0.01 0.01 0.01 0.01 0.01 0.01 0.00 0.01 0.01 0.01 0.01 0.02 0.02
0.02 0.02 0.02 0.01 0.01 0.01 0.02 0.03 0.04 0.05 0.05 0.05 0.05 0.05 0.05 0.05 0.04 0.04 0.04 0.04 0.03 0.03 0.02 0.02 0.01 0.01 0.02 0.03 0.03 0.02 0.02 0.02 0.01 0.01 0.01 0.01 0.01 0.01 0.00 0.01 0.01 0.01 0.01 0.01
0.02 0.02 0.02 0.01 0.01 0.02 0.03 0.03 0.04 0.04 0.04 0.05 0.05 0.05 0.04 0.05 0.05 0.04 0.04 0.03 0.03 0.03 0.03 0.02 0.02 0.02 0.01 0.01 0.02 0.02 0.02 0.02 0.02 0.01 0.01 0.01 0.01 0.01 0.01 0.01 0.01 0.01 0.01 0.01
0.01 0.02 0.02 0.02 0.01 0.01 0.01 0.02 0.03 0.03 0.03 0.04 0.04 0.03 0.03 0.03 0.03 0.03 0.03 0.03 0.03 0.03 0.02 0.02 0.02 0.02 0.01 0.01 0.01 0.02 0.01 0.01 0.01 0.01 0.01 0.01 0.01 0.01 0.01 0.01 0.01 0.01 0.01 0.01
0.01 0.02 0.03 0.02 0.01 0.01 0.01 0.01 0.02 0.02 0.02 0.02 0.03 0.03 0.03 0.02 0.03 0.03 0.02 0.02 0.03 0.02 0.02 0.02 0.02 0.02 0.02 0.01 0.01 0.01 0.01 0.01 0.01 0.01 0.01 0.00 0.01 0.01 0.01 0.01 0.01 0.01 0.01 0.01
0.01 0.02 0.02 0.01 0.01 0.01 0.01 0.01 0.01 0.01 0.02 0.02 0.02 0.03 0.03 0.03 0.03 0.03 0.03 0.03 0.04 0.03 0.02 0.02 0.01 0.01 0.01 0.02 0.02 0.01 0.01 0.01 0.01 0.01 0.01 0.00 0.01 0.01 0.01 0.01 0.01 0.01 0.01 0.01
0.01 0.01 0.01 0.01 0.01 0.01 0.01 0.01 0.02 0.03 0.02 0.02 0.02 0.02 0.02 0.02 0.02 0.02 0.03 0.03 0.03 0.04 0.02 0.02 0.02 0.02 0.01 0.01 0.02 0.02 0.02 0.01 0.01 0.01 0.01 0.01 0.01 0.01 0.01 0.02 0.02 0.02 0.01 0.02
0.01 0.02 0.02 0.02 0.02 0.03 0.02 0.03 0.03 0.03 0.02 0.02 0.02 0.02 0.02 0.02 0.02 0.02 0.02 0.03 0.03 0.04 0.02 0.02 0.02 0.02 0.02 0.02 0.02 0.03 0.02 0.02 0.02 0.02 0.02 0.01 0.01 0.01 0.01 0.02 0.02 0.02 0.02 0.02
0.01 0.01 0.01 0.01 0.02 0.02 0.02 0.02 0.02 0.02 0.03 0.03 0.02 0.02 0.02 0.02 0.02 0.02 0.02 0.03 0.03 0.03 0.02 0.02 0.02 0.02 0.02 0.02 0.03 0.03 0.03 0.02 0.02 0.02 0.02 0.02 0.02 0.02 0.02 0.02 0.02 0.02 0.02 0.02
0.01 0.00 0.00 0.01 0.01 0.01 0.01 0.02 0.02 0.02 0.03 0.03 0.02 0.02 0.03 0.02 0.02 0.02 0.03 0.03 0.03 0.02 0.03 0.03 0.03 0.03 0.03 0.03 0.03 0.03 0.03 0.03 0.03 0.03 0.02 0.02 0.02 0.02 0.02 0.02 0.02 0.02 0.02 0.02
0.01 0.01 0.01 0.01 0.01 0.01 0.01 0.02 0.03 0.03 0.03 0.04 0.03 0.03 0.03 0.02 0.02 0.02 0.03 0.03 0.02 0.03 0.02 0.02 0.02 0.02 0.03 0.03 0.03 0.03 0.03 0.03 0.03 0.03 0.03 0.02 0.02 0.02 0.02 0.02 0.02 0.02 0.02 0.02
MSLP
1017.01 1016.81 1016.55 1016.15 1015.56 1014.74 1013.72 1012.55 1011.29 1010.05 1008.90 1007.91 1007.11 1006.51 1006.09 1005.82 1005.67 1005.59 1005.57 1005.61 1005.70 1005.87 1006.11 1006.44 1006.83 1007.26 1007.73 1008.21 1008.69 1009.16 1009.64 1010.13 1010.65 1011.22 1011.82 1012.45 1013.09 1013.72 1014.30 1014.83 1015.31 1015.77 1016.22 1016.70
1017.40 1017.16 1016.82 1016.31 1015.59 1014.65 1013.51 1012.24 1010.92 1009.66 1008.52 1007.57 1006.81 1006.26 1005.88 1005.63 1005.47 1005.37 1005.30 1005.28 1005.31 1005.42 1005.62 1005.90 1006.28 1006.72 1007.21 1007.71 1008.23 1008.73 1009.24 1009.77 1010.31 1010.88 1011.48 1012.10 1012.72 1013.32 1013.89 1014.41 1014.88 1015.33 1015.79 1016.28
1017.79 1017.46 1017.00 1016.35 1015.47 1014.37 1013.11 1011.76 1010.42 1009.18 1008.11 1007.25 1006.61 1006.17 1005.87 1005.67 1005.52 1005.38 1005.24 1005.12 1005.04 1005.04 1005.13 1005.34 1005.66 1006.07 1006.56 1007.09 1007.64 1008.20 1008.75 1009.31 1009.88 1010.47 1011.07 1011.68 1012.29 1012.87 1013.42 1013.93 1014.40 1014.86 1015.32 1015.81
1018.24 1017.77 1017.15 1016.31 1015.25 1014.01 1012.63 1011.23 1009.90 1008.73 1007.79 1007.09 1006.62 1006.34 1006.17 1006.06 1005.93 1005.76 1005.54 1005.30 1005.07 1004.91 1004.85 1004.93 1005.15 1005.50 1005.96 1006.48 1007.05 1007.64 1008.23 1008.82 1009.41 1010.01 1010.61 1011.22 1011.82 1012.39 1012.93 1013.43 1013.90 1014.36 1014.82 1015.32
1018.79 1018.16 1017.34 1016.30 1015.06 1013.66 1012.19 1010.77 1009.48 1008.44 1007.67 1007.18 1006.93 1006.86 1006.86 1006.86 1006.78 1006.60 1006.30 1005.93 1005.54 1005.19 1004.96 1004.87 1004.95 1005.19 1005.57 1006.06 1006.60 1007.19 1007.78 1008.37 1008.97 1009.56 1010.16 1010.76 1011.34 1011.90 1012.44 1012.93 1013.41 1013.87 1014.33 1014.83
1019.48 1018.66 1017.65 1016.42 1015.00 1013.47 1011.94 1010.52 1009.32 1008.43 1007.86 1007.61 1007.61 1007.77 1007.97 1008.11 1008.10 1007.92 1007.56 1007.07 1006.53 1006.00 1005.57 1005.30 1005.21 1005.31 1005.57 1005.95 1006.43 1006.95 1007.49 1008.05 1008.61 1009.17 1009.74 1010.31 1010.88 1011.43 1011.96 1012.46 1012.94 1013.40 1013.86 1014.36
1020.32 1019.33 1018.13 1016.72 1015.17 1013.56 1011.99 1010.61 1009.53 1008.80 1008.45 1008.45 1008.69 1009.08 1009.47 1009.75 1009.83 1009.67 1009.28 1008.70 1008.02 1007.33 1006.72 1006.27 1006.00 1005.92 1006.02 1006.26 1006.60 1007.01 1007.45 1007.91 1008.38 1008.87 1009.38 1009.91 1010.45 1010.99 1011.51 1012.02 1012.50 1012.96 1013.42 1013.91
1021.28 1020.14 1018.80 1017.28 1015.64 1013.99 1012.44 1011.14 1010.18 1009.63 1009.48 1009.68 1010.14 1010.72 1011.28 1011.69 1011.85 1011.72 1011.31 1010.68 1009.90 1009.09 1008.33 1007.71 1007.26 1007.01 1006.92 1006.98 1007.15 1007.38 1007.66 1007.97 1008.31 1008.69 1009.11 1009.57 1010.06 1010.57 1011.09 1011.59 1012.08 1012.54 1013.00 1013.47
1022.28 1021.05 1019.63 1018.06 1016.41 1014.79 1013.32 1012.13 1011.31 1010.91 1010.92 1011.29 1011.90 1012.62 1013.28 1013.77 1013.98 1013.88 1013.47 1012.81 1011.98 1011.09 1010.23 1009.48 1008.89 1008.46 1008.20 1008.06 1008.01 1008.04 1008.11 1008.23 1008.39 1008.62 1008.91 1009.27 1009.70 1010.18 1010.68 1011.18 1011.66 1012.13 1012.58 1013.03
1023.22 1021.98 1020.57 1019.04 1017.47 1015.95 1014.60 1013.54 1012.87 1012.60 1012.73 1013.19 1013.87 1014.63 1015.33 1015.84 1016.06 1015.96 1015.55 1014.88 1014.04 1013.12 1012.21 1011.38 1010.68 1010.13 1009.70 1009.37 1009.12 1008.92 1008.76 1008.65 1008.61 1008.65 1008.79 1009.04 1009.38 1009.80 1010.27 1010.76 1011.24 1011.70 1012.13 1012.56
1024.02 1022.84 1021.54 1020.14 1018.72 1017.38 1016.21 1015.32 1014.77 1014.61 1014.80 1015.28 1015.94 1016.66 1017.31 1017.76 1017.93 1017.80 1017.37 1016.71 1015.87 1014.96 1014.05 1013.21 1012.46 1011.82 1011.27 1010.78 1010.34 1009.93 1009.55 1009.21 1008.94 1008.78 1008.74 1008.85 1009.08 1009.43 1009.85 1010.32 1010.79 1011.24 1011.67 1012.08
1024.64 1023.60 1022.48 1021.29 1020.10 1018.98 1018.03 1017.31 1016.90 1016.80 1016.99 1017.42 1018.00 1018.59 1019.11 1019.43 1019.51 1019.30 1018.84 1018.18 1017.37 1016.50 1015.63 1014.81 1014.07 1013.39 1012.77 1012.17 1011.58 1010.98 1010.39 1009.84 1009.35 1008.98 1008.76 1008.70 1008.81 1009.07 1009.44 1009.87 1010.32 1010.77 1011.18 1011.58
1025.10 1024.26 1023.37 1022.44 1021.52 1020.66 1019.93 1019.39 1019.09 1019.03 1019.19 1019.52 1019.94 1020.36 1020.68 1020.83 1020.76 1020.46 1019.94 1019.27 1018.49 1017.67 1016.87 1016.11 1015.41 1014.75 1014.10 1013.44 1012.74 1012.01 1011.24 1010.49 1009.81 1009.24 1008.83 1008.61 1008.58 1008.74 1009.04 1009.43 1009.86 1010.29 1010.71 1011.10
1025.50 1024.88 1024.23 1023.57 1022.92 1022.32 1021.81 1021.43 1021.21 1021.16 1021.26 1021.46 1021.70 1021.91 1022.02 1021.97 1021.73 1021.31 1020.72 1020.03 1019.27 1018.51 1017.78 1017.10 1016.47 1015.85 1015.22 1014.53 1013.77 1012.94 1012.04 1011.14 1010.28 1009.53 1008.94 1008.56 1008.40 1008.44 1008.66 1009.01 1009.42 1009.86 1010.28 1010.67
1025.96 1025.54 1025.12 1024.71 1024.30 1023.92 1023.59 1023.33 1023.17 1023.11 1023.12 1023.18 1023.24 1023.24 1023.13 1022.88 1022.48 1021.93 1021.27 1020.55 1019.81 1019.09 1018.43 1017.82 1017.26 1016.70 1016.10 1015.42 1014.64 1013.74 1012.76 1011.73 1010.74 1009.83 1009.09 1008.56 1008.26 1008.20 1008.35 1008.65 1009.04 1009.48 1009.92 1010.34
1026.61 1026.36 1026.13 1025.89 1025.66 1025.43 1025.22 1025.04 1024.90 1024.80 1024.72 1024.64 1024.52 1024.34 1024.04 1023.62 1023.08 1022.42 1021.69 1020.94 1020.20 1019.50 1018.89 1018.34 1017.83 1017.32 1016.76 1016.10 1015.31 1014.39 1013.36 1012.25 1011.16 1010.14 1009.27 1008.61 1008.20 1008.04 1008.12 1008.37 1008.75 1009.21 1009.68 1010.13
1027.56 1027.42 1027.29 1027.16 1027.02 1026.86 1026.70 1026.53 1026.36 1026.20 1026.02 1025.82 1025.56 1025.23 1024.80 1024.25 1023.59 1022.85 1022.07 1021.27 1020.52 1019.83 1019.22 1018.70 1018.21 1017.73 1017.20 1016.56 1015.78 1014.86 1013.81 1012.67 1011.52 1010.42 1009.46 1008.71 1008.21 1007.97 1007.98 1008.20 1008.58 1009.05 1009.56 1010.06
1028.83 1028.74 1028.65 1028.53 1028.40 1028.23 1028.03 1027.81 1027.57 1027.32 1027.05 1026.75 1026.38 1025.95 1025.42 1024.79 1024.06 1023.27 1022.44 1021.61 1020.82 1020.11 1019.48 1018.94 1018.45 1017.96 1017.43 1016.81 1016.05 1015.15 1014.10 1012.97 1011.80 1010.67 1009.67 1008.87 1008.30 1008.00 1007.97 1008.16 1008.53 1009.02 1009.57 1010.12
1030.34 1030.24 1030.12 1029.96 1029.76 1029.51 1029.22 1028.91 1028.57 1028.23 1027.86 1027.46 1027.02 1026.52 1025.94 1025.26 1024.50 1023.68 1022.81 1021.95 1021.12 1020.36 1019.68 1019.08 1018.55 1018.03 1017.48 1016.85 1016.12 1015.24 1014.24 1013.14 1012.00 1010.90 1009.90 1009.07 1008.48 1008.15 1008.09 1008.26 1008.62 1009.12 1009.70 1010.30
1031.91 1031.78 1031.60 1031.36 1031.05 1030.69 1030.29 1029.85 1029.40 1028.95 1028.49 1028.03 1027.53 1026.99 1026.38 1025.69 1024.92 1024.07 1023.18 1022.28 1021.39 1020.56 1019.81 1019.13 1018.52 1017.95 1017.36 1016.73 1016.01 1015.18 1014.24 1013.21 1012.14 1011.09 1010.14 1009.34 1008.75 1008.41 1008.33 1008.49 1008.84 1009.34 1009.94 1010.57
1033.32 1033.16 1032.92 1032.60 1032.19 1031.72 1031.20 1030.65 1030.09 1029.55 1029.01 1028.49 1027.95 1027.39 1026.77 1026.07 1025.29 1024.43 1023.52 1022.57 1021.62 1020.71 1019.86 1019.09 1018.39 1017.74 1017.11 1016.46 1015.76 1014.98 1014.12 1013.19 1012.22 1011.27 1010.39 1009.66 1009.11 1008.78 1008.70 1008.84 1009.18 1009.66 1010.25 1010.89
1034.35 1034.18 1033.91 1033.54 1033.07 1032.52 1031.92 1031.29 1030.66 1030.05 1029.46 1028.89 1028.32 1027.74 1027.11 1026.41 1025.63 1024.76 1023.81 1022.81 1021.80 1020.80 1019.86 1018.99 1018.19 1017.46 1016.78 1016.11 1015.43 1014.70 1013.93 1013.10 1012.26 1011.43 1010.67 1010.02 1009.53 1009.24 1009.16 1009.29 1009.60 1010.06 1010.63 1011.25
1034.84 1034.70 1034.44 1034.07 1033.60 1033.04 1032.41 1031.76 1031.10 1030.46 1029.84 1029.25 1028.67 1028.07 1027.43 1026.72 1025.93 1025.03 1024.05 1023.01 1021.93 1020.85 1019.82 1018.84 1017.95 1017.14 1016.41 1015.71 1015.05 1014.38 1013.69 1012.98 1012.27 1011.57 1010.93 1010.38 1009.97 1009.73 1009.67 1009.80 1010.08 1010.51 1011.04 1011.63
1034.73 1034.65 1034.46 1034.15 1033.74 1033.23 1032.65 1032.04 1031.41 1030.78 1030.17 1029.58 1028.99 1028.38 1027.73 1027.01 1026.20 1025.28 1024.27 1023.18 1022.04 1020.90 1019.77 1018.71 1017.73 1016.85 1016.05 1015.33 1014.67 1014.03 1013.42 1012.82 1012.23 1011.66 1011.15 1010.72 1010.40 1010.21 1010.18 1010.31 1010.58 1010.97 1011.46 1012.01
1034.06 1034.07 1033.98 1033.79 1033.49 1033.10 1032.64 1032.12 1031.57 1031.00 1030.44 1029.87 1029.29 1028.69 1028.03 1027.29 1026.46 1025.52 1024.48 1023.36 1022.17 1020.97 1019.77 1018.64 1017.58 1016.62 1015.76 1014.99 1014.31 1013.70 1013.13 1012.61 1012.12 1011.67 1011.27 1010.95 1010.72 1010.61 1010.63 1010.78 1011.04 1011.42 1011.88 1012.40
1033.01 1033.10 1033.13 1033.08 1032.94 1032.71 1032.40 1032.03 1031.60 1031.13 1030.64 1030.12 1029.56 1028.97 1028.31 1027.56 1026.72 1025.77 1024.71 1023.57 1022.35 1021.10 1019.86 1018.65 1017.52 1016.48 1015.55 1014.73 1014.01 1013.37 1012.82 1012.34 1011.91 1011.55 1011.25 1011.03 1010.90 1010.87 1010.95 1011.13 1011.42 1011.80 1012.25 1012.77
Thickness
5452 5447 5446 5452 5458 5464 5464 5465 5471 5485 5496 5498 5501 5508 5518 5526 5531 5538 5545 5553 5560 5569 5576 5581 5587 5592 5597 5601 5605 5609 5611 5613 5616 5617 5618 5619 5620 5622 5624 5626 5628 5630 5631 5632
5430 5429 5439 5444 5447 5447 5447 5447 5454 5468 5480 5483 5485 5492 5504 5510 5517 5523 5530 5538 5546 5554 5561 5567 5573 5578 5584 5589 5593 5597 5600 5603 5607 5609 5610 5612 5612 5613 5616 5617 5619 5621 5624 5625
5413 5422 5430 5430 5429 5432 5434 5435 5441 5450 5460 5467 5470 5476 5486 5495 5504 5512 5518 5525 5532 5540 5547 5553 5559 5565 5571 5576 5581 5586 5590 5593 5597 5599 5600 5601 5602 5603 5605 5607 5610 5612 5615 5617
5402 5411 5415 5416 5418 5420 5423 5432 5435 5440 5438 5441 5455 5454 5470 5478 5488 5498 5504 5510 5517 5525 5532 5539 5546 5551 5557 5564 5569 5575 5579 5583 5586 5590 5592 5593 5595 5596 5597 5600 5601 5604 5606 5608
5388 5397 5399 5402 5408 5411 5414 5424 5426 5428 5425 5425 5435 5438 5450 5462 5471 5483 5491 5496 5503 5510 5517 5524 5532 5539 5545 5552 5558 5564 5568 5572 5576 5580 5582 5584 5586 5588 5589 5591 5592 5594 5597 5599
5382 5388 5388 5392 5400 5404 5407 5411 5416 5414 5414 5416 5423 5426 5433 5441 5458 5470 5478 5483 5489 5496 5503 5510 5518 5526 5532 5539 5545 5552 5557 5562 5566 5570 5573 5575 5577 5579 5580 5582 5583 5585 5588 5590
5367 5377 5382 5385 5388 5395 5394 5394 5394 5396 5402 5409 5418 5417 5422 5432 5444 5456 5465 5470 5475 5481 5488 5495 5503 5511 5520 5527 5533 5540 5546 5551 5555 5559 5563 5566 5569 5571 5573 5575 5576 5578 5579 5581
5341 5353 5367 5371 5372 5374 5380 5381 5380 5384 5393 5397 5403 5404 5409 5417 5427 5438 5447 5455 5460 5467 5474 5482 5490 5498 5507 5515 5522 5528 5534 5539 5543 5548 5552 5556 5559 5561 5564 5567 5569 5571 5573 5575
5326 5341 5357 5363 5365 5367 5370 5371 5374 5372 5377 5382 5389 5388 5396 5406 5410 5419 5428 5437 5444 5452 5461 5469 5476 5484 5493 5502 5509 5516 5522 5527 5532 5536 5540 5544 5548 5551 5554 5557 5560 5562 5565 5567
5321 5324 5341 5349 5358 5359 5357 5359 5359 5359 5369 5377 5377 5376 5380 5385 5392 5403 5411 5419 5428 5437 5446 5455 5463 5470 5479 5488 5496 5503 5510 5515 5520 5525 5529 5534 5537 5541 5544 5547 5549 5553 5555 5558
5318 5314 5325 5333 5333 5334 5341 5343 5343 5346 5353 5360 5364 5363 5367 5370 5379 5387 5396 5404 5412 5421 5430 5440 5449 5457 5465 5474 5482 5489 5496 5502 5508 5513 5517 5522 5526 5530 5533 5536 5540 5543 5545 5548
5312 5304 5305 5315 5325 5327 5329 5325 5329 5335 5338 5339 5345 5347 5355 5358 5366 5374 5382 5391 5398 5407 5416 5426 5434 5443 5451 5460 5467 5475 5483 5489 5495 5501 5506 5511 5515 5519 5523 5526 5529 5533 5535 5538
5306 5294 5293 5306 5313 5313 5313 5315 5317 5322 5324 5326 5334 5338 5346 5348 5356 5363 5369 5377 5385 5394 5403 5412 5421 5428 5436 5444 5453 5461 5469 5476 5482 5489 5494 5499 5503 5508 5512 5515 5519 5522 5525 5527
5306 5288 5285 5286 5291 5293 5297 5304 5309 5313 5311 5313 5315 5323 5330 5334 5342 5350 5357 5364 5372 5381 5390 5399 5406 5413 5422 5430 5438 5446 5454 5462 5469 5476 5482 5487 5492 5497 5501 5505 5508 5511 5514 5517
5292 5283 5281 5284 5290 5291 5291 5295 5299 5299 5301 5302 5307 5312 5316 5320 5327 5337 5343 5352 5362 5370 5378 5386 5393 5400 5408 5416 5424 5433 5441 5448 5456 5463 5469 5475 5480 5485 5490 5494 5497 5500 5504 5507
5279 5278 5280 5283 5290 5288 5286 5287 5290 5290 5291 5293 5298 5302 5305 5311 5319 5326 5332 5340 5349 5357 5365 5373 5380 5387 5395 5403 5411 5419 5427 5435 5443 5450 5457 5463 5468 5473 5478 5482 5486 5489 5493 5496
5271 5270 5273 5272 5275 5281 5273 5272 5274 5277 5277 5281 5287 5291 5295 5303 5311 5315 5322 5330 5337 5344 5352 5360 5367 5374 5381 5389 5397 5405 5414 5423 5430 5437 5444 5450 5456 5461 5466 5470 5474 5478 5481 5485
5267 5266 5263 5261 5262 5257 5268 5267 5267 5269 5271 5271 5277 5281 5285 5292 5300 5307 5312 5318 5325 5333 5340 5347 5355 5362 5369 5376 5384 5393 5401 5410 5417 5424 5431 5437 5443 5448 5453 5458 5462 5465 5469 5473
5266 5264 5256 5251 5247 5253 5263 5261 5257 5258 5264 5265 5268 5273 5278 5286 5296 5303 5307 5310 5315 5323 5329 5336 5343 5350 5357 5364 5372 5380 5388 5396 5403 5410 5417 5423 5429 5435 5440 5445 5449 5453 5457 5460
5262 5256 5248 5240 5244 5248 5255 5254 5254 5255 5257 5260 5260 5264 5269 5277 5284 5294 5297 5301 5307 5314 5321 5327 5333 5340 5347 5354 5361 5368 5375 5382 5389 5396 5403 5410 5416 5422 5427 5432 5436 5440 5444 5447
5248 5238 5233 5232 5231 5240 5245 5247 5251 5246 5251 5252 5251 5255 5259 5264 5269 5277 5284 5291 5298 5305 5312 5318 5324 5330 5336 5343 5350 5357 5363 5369 5376 5383 5390 5397 5403 5409 5414 5419 5423 5427 5430 5433
5237 5231 5226 5224 5226 5237 5241 5241 5238 5240 5243 5243 5245 5248 5252 5258 5264 5270 5277 5283 5291 5297 5304 5309 5315 5321 5327 5333 5339 5346 5351 5357 5364 5371 5378 5384 5390 5395 5401 5406 5410 5413 5417 5420
5230 5230 5227 5226 5234 5237 5234 5233 5235 5234 5235 5238 5240 5244 5248 5253 5258 5264 5271 5277 5282 5289 5295 5301 5306 5312 5318 5323 5329 5334 5340 5346 5353 5360 5366 5372 5377 5382 5387 5392 5397 5400 5403 5406
5228 5225 5224 5223 5229 5230 5229 5228 5229 5229 5230 5233 5236 5239 5244 5247 5252 5258 5264 5270 5275 5281 5287 5292 5296 5302 5307 5313 5318 5323 5329 5336 5343 5349 5354 5360 5365 5370 5374 5379 5383 5387 5390 5393
5225 5219 5218 5219 5224 5225 5228 5226 5225 5226 5227 5229 5233 5236 5239 5243 5247 5252 5257 5262 5267 5273 5278 5283 5287 5293 5298 5303 5309 5314 5320 5326 5332 5338 5343 5348 5353 5358 5362 5366 5369 5374 5377 5381
5220 5218 5217 5223 5224 5220 5222 5223 5223 5222 5224 5226 5228 5232 5236 5238 5241 5245 5249 5253 5258 5264 5269 5274 5279 5284 5289 5294 5300 5305 5311 5316 5322 5327 5333 5337 5342 5346 5350 5353 5356 5360 5364 5368